{"data":{"norad_id":58552,"epoch":"2026-09-20T08:14:33.954720Z","epoch_age_seconds":163361,"freshness":"FRESH","line1":"1 58552U 23192X   26263.34344855  .00001120  00000+0  44291-4 0  9994","line2":"2 58552  53.1594 234.6283 0001554  85.5337 274.5843 15.34393353155843","mean_motion":15.34393353,"eccentricity":0.0001554,"inclination_deg":53.1594,"raan_deg":234.6283,"arg_perigee_deg":85.5337,"mean_anomaly_deg":274.5843,"bstar":4.4291e-5,"rev_number":15584,"period_min":93.848164630312,"perigee_km":461.65992691975,"apogee_km":463.78606620668,"semimajor_km":6840.8599965632,"source":"CELESTRAK","updated_at":"2026-09-21T09:00:33.916544Z"}}